Time,TemperatureF,DewpointF,PressureIn,WindDirection,WindDirectionDegrees,WindSpeedMPH,WindSpeedGustMPH,Humidity,HourlyPrecipIn,Conditions,Clouds,dailyrainin,SoftwareType,DateUTC
2013-01-29 00:02:00,74.9,67.9,30.05,ESE,112,2.7,53.5,79,0.00,,---,0.00,VWS V14.01,2013-01-29 04:02:00,
2013-01-29 00:08:00,75.1,68.2,30.05,SE,135,4.0,53.5,79,0.00,,---,0.00,VWS V14.01,2013-01-29 04:08:00,
2013-01-29 00:13:00,74.9,67.9,30.05,NE,45,4.9,53.5,79,0.00,,---,0.00,VWS V14.01,2013-01-29 04:13:00,
2013-01-29 00:18:00,74.9,67.9,30.05,SE,135,4.7,53.5,79,0.00,,---,0.00,VWS V14.01,2013-01-29 04:18:00,
2013-01-29 00:23:00,75.1,68.2,30.04,SE,135,5.1,53.5,79,0.00,,---,0.00,VWS V14.01,2013-01-29 04:23:00,
2013-01-29 00:28:00,75.1,68.5,30.04,ENE,68,3.4,53.5,80,0.00,,---,0.00,VWS V14.01,2013-01-29 04:28:00,
2013-01-29 00:33:00,75.1,68.5,30.05,East,90,2.9,53.5,80,0.00,,---,0.00,VWS V14.01,2013-01-29 04:33:00,
2013-01-29 00:38:00,75.1,68.5,30.04,NE,45,4.0,53.5,80,0.00,,---,0.00,VWS V14.01,2013-01-29 04:38:00,
2013-01-29 00:43:00,75.1,68.5,30.04,NE,45,4.7,53.5,80,0.00,,---,0.00,VWS V14.01,2013-01-29 04:43:00,
2013-01-29 00:48:00,75.1,68.5,30.04,North,0,3.4,53.5,80,0.00,,---,0.00,VWS V14.01,2013-01-29 04:48:00,
2013-01-29 00:53:00,74.9,68.3,30.04,ESE,112,3.6,53.5,80,0.00,,---,0.00,VWS V14.01,2013-01-29 04:53:00,
2013-01-29 00:58:00,74.9,67.9,30.04,ENE,68,3.8,53.5,79,0.00,,---,0.00,VWS V14.01,2013-01-29 04:58:00,
2013-01-29 01:00:00,74.9,67.9,30.04,ENE,68,3.1,53.5,79,0.00,,---,0.00,VWS V14.01,2013-01-29 05:00:00,
2013-01-29 01:02:00,74.9,67.6,30.04,North,0,4.0,53.5,78,0.00,,---,0.00,VWS V14.01,2013-01-29 05:02:00,
2013-01-29 01:03:00,74.7,67.4,30.04,SE,135,6.3,53.5,78,0.00,,---,0.00,VWS V14.01,2013-01-29 05:03:00,
2013-01-29 01:08:00,74.9,67.9,30.04,ESE,112,2.5,53.5,79,0.00,,---,0.00,VWS V14.01,2013-01-29 05:08:00,
2013-01-29 01:13:00,74.9,67.9,30.04,ENE,68,1.8,53.5,79,0.00,,---,0.00,VWS V14.01,2013-01-29 05:13:00,
2013-01-29 01:18:00,74.9,68.3,30.03,NNE,22,3.8,53.5,80,0.00,,---,0.00,VWS V14.01,2013-01-29 05:18:00,
2013-01-29 01:23:00,74.9,68.3,30.03,NNE,22,3.6,53.5,80,0.00,,---,0.00,VWS V14.01,2013-01-29 05:23:00,
2013-01-29 01:28:00,74.9,68.3,30.03,North,0,4.3,53.5,80,0.00,,---,0.00,VWS V14.01,2013-01-29 05:28:00,
2013-01-29 01:33:00,74.7,67.8,30.03,North,0,2.5,53.5,79,0.00,,---,0.00,VWS V14.01,2013-01-29 05:33:00,
2013-01-29 01:38:00,74.7,67.8,30.03,North,0,2.9,53.5,79,0.00,,---,0.00,VWS V14.01,2013-01-29 05:38:00,
2013-01-29 01:43:00,74.7,67.8,30.03,NNE,22,2.2,53.5,79,0.00,,---,0.00,VWS V14.01,2013-01-29 05:43:00,
2013-01-29 01:48:00,74.7,68.1,30.03,North,0,5.4,53.5,80,0.00,,---,0.00,VWS V14.01,2013-01-29 05:48:00,
2013-01-29 01:53:00,74.7,68.5,30.02,West,270,1.8,53.5,81,0.00,,---,0.00,VWS V14.01,2013-01-29 05:53:00,
2013-01-29 01:58:00,74.7,68.1,30.02,ENE,68,4.3,53.5,80,0.00,,---,0.00,VWS V14.01,2013-01-29 05:58:00,
2013-01-29 02:03:00,74.7,68.1,30.02,SE,135,4.0,53.5,80,0.00,,---,0.00,VWS V14.01,2013-01-29 06:03:00,
2013-01-29 02:08:00,74.7,68.5,30.02,WSW,248,2.5,53.5,81,0.00,,---,0.00,VWS V14.01,2013-01-29 06:08:00,
2013-01-29 02:13:00,74.9,68.7,30.02,ESE,112,3.4,53.5,81,0.00,,---,0.00,VWS V14.01,2013-01-29 06:13:00,
2013-01-29 02:18:00,74.7,68.1,30.02,SE,135,5.4,53.5,80,0.00,,---,0.00,VWS V14.01,2013-01-29 06:18:00,
2013-01-29 02:23:00,74.5,67.9,30.02,SSW,202,3.4,53.5,80,0.00,,---,0.00,VWS V14.01,2013-01-29 06:23:00,
2013-01-29 02:28:00,74.5,67.9,30.02,ENE,68,4.5,53.5,80,0.00,,---,0.00,VWS V14.01,2013-01-29 06:28:00,
2013-01-29 02:34:00,74.5,67.9,30.01,SW,225,3.4,53.5,80,0.00,,---,0.00,VWS V14.01,2013-01-29 06:34:00,
2013-01-29 02:39:00,74.5,67.9,30.01,SE,135,4.0,53.5,80,0.00,,---,0.00,VWS V14.01,2013-01-29 06:39:00,
2013-01-29 02:43:00,74.5,67.9,30.01,ESE,112,4.3,53.5,80,0.00,,---,0.00,VWS V14.01,2013-01-29 06:43:00,
2013-01-29 02:48:00,74.5,67.9,30.01,North,0,3.6,53.5,80,0.00,,---,0.00,VWS V14.01,2013-01-29 06:48:00,
2013-01-29 02:53:00,74.5,68.3,30.01,SSW,202,2.5,53.5,81,0.00,,---,0.00,VWS V14.01,2013-01-29 06:53:00,
2013-01-29 02:59:00,74.5,67.9,30.01,East,90,3.4,53.5,80,0.00,,---,0.00,VWS V14.01,2013-01-29 06:59:00,
2013-01-29 03:04:00,74.5,67.9,30.00,ENE,68,1.8,53.5,80,0.00,,---,0.00,VWS V14.01,2013-01-29 07:04:00,
2013-01-29 03:09:00,74.5,67.9,30.00,NNW,338,3.1,53.5,80,0.00,,---,0.00,VWS V14.01,2013-01-29 07:09:00,
2013-01-29 03:14:00,74.5,67.9,30.00,ESE,112,3.8,53.5,80,0.00,,---,0.00,VWS V14.01,2013-01-29 07:14:00,
2013-01-29 03:19:00,74.5,67.9,30.00,SSE,158,5.4,53.5,80,0.00,,---,0.00,VWS V14.01,2013-01-29 07:19:00,
2013-01-29 03:24:00,74.5,67.9,30.00,East,90,4.0,53.5,80,0.00,,---,0.00,VWS V14.01,2013-01-29 07:24:00,
2013-01-29 03:29:00,74.7,68.1,30.00,NNE,22,1.8,53.5,80,0.00,,---,0.00,VWS V14.01,2013-01-29 07:29:00,
2013-01-29 03:34:00,74.5,67.9,29.99,ESE,112,3.8,53.5,80,0.00,,---,0.00,VWS V14.01,2013-01-29 07:34:00,
2013-01-29 03:39:00,74.5,67.2,29.99,SSE,158,4.7,53.5,78,0.00,,---,0.00,VWS V14.01,2013-01-29 07:39:00,
2013-01-29 03:44:00,74.5,67.9,29.99,East,90,5.6,53.5,80,0.00,,---,0.00,VWS V14.01,2013-01-29 07:44:00,
2013-01-29 03:49:00,74.7,68.5,29.99,ESE,112,4.0,53.5,81,0.00,,---,0.00,VWS V14.01,2013-01-29 07:49:00,
2013-01-29 03:54:00,74.5,68.3,29.99,SSW,202,4.0,53.5,81,0.00,,---,0.00,VWS V14.01,2013-01-29 07:54:00,
2013-01-29 03:59:00,74.5,68.3,29.99,NNW,338,4.0,53.5,81,0.00,,---,0.00,VWS V14.01,2013-01-29 07:59:00,
2013-01-29 04:04:00,74.5,68.3,29.99,ESE,112,2.5,53.5,81,0.00,,---,0.00,VWS V14.01,2013-01-29 08:04:00,
2013-01-29 04:09:00,74.5,67.6,29.99,ENE,68,3.6,53.5,79,0.00,,---,0.00,VWS V14.01,2013-01-29 08:09:00,
2013-01-29 04:14:00,74.5,67.9,29.99,ESE,112,4.7,53.5,80,0.00,,---,0.00,VWS V14.01,2013-01-29 08:14:00,
2013-01-29 04:19:00,74.7,68.1,29.99,ENE,68,4.9,53.5,80,0.00,,---,0.00,VWS V14.01,2013-01-29 08:19:00,
2013-01-29 04:24:00,74.5,67.6,29.99,SSW,202,3.1,53.5,79,0.00,,---,0.00,VWS V14.01,2013-01-29 08:24:00,
2013-01-29 04:29:00,74.5,67.6,29.99,South,180,3.6,53.5,79,0.00,,---,0.00,VWS V14.01,2013-01-29 08:29:00,
2013-01-29 04:34:00,74.5,67.2,29.99,SSE,158,4.0,53.5,78,0.00,,---,0.00,VWS V14.01,2013-01-29 08:34:00,
2013-01-29 04:39:00,74.5,67.6,29.99,South,180,4.3,53.5,79,0.00,,---,0.00,VWS V14.01,2013-01-29 08:39:00,
2013-01-29 04:44:00,74.3,67.0,29.99,SE,135,4.9,53.5,78,0.00,,---,0.00,VWS V14.01,2013-01-29 08:44:00,
2013-01-29 04:49:00,74.5,67.6,29.99,NNE,22,2.5,53.5,79,0.00,,---,0.00,VWS V14.01,2013-01-29 08:49:00,
2013-01-29 04:54:00,74.5,67.9,29.99,South,180,4.0,53.5,80,0.00,,---,0.00,VWS V14.01,2013-01-29 08:54:00,
2013-01-29 04:59:00,74.5,67.9,29.99,SE,135,3.6,53.5,80,0.00,,---,0.00,VWS V14.01,2013-01-29 08:59:00,
2013-01-29 05:04:00,74.5,68.3,29.99,NE,45,4.0,53.5,81,0.00,,---,0.00,VWS V14.01,2013-01-29 09:04:00,
2013-01-29 05:09:00,74.5,67.6,29.99,ESE,112,2.9,53.5,79,0.00,,---,0.00,VWS V14.01,2013-01-29 09:09:00,
2013-01-29 05:14:00,74.5,67.2,29.99,ENE,68,6.0,53.5,78,0.00,,---,0.00,VWS V14.01,2013-01-29 09:14:00,
2013-01-29 05:19:00,74.5,67.6,29.99,NNE,22,4.0,53.5,79,0.00,,---,0.00,VWS V14.01,2013-01-29 09:19:00,
2013-01-29 05:24:00,74.7,67.8,29.99,West,270,4.7,53.5,79,0.00,,---,0.00,VWS V14.01,2013-01-29 09:24:00,
2013-01-29 05:29:00,74.7,68.1,29.99,East,90,3.4,53.5,80,0.00,,---,0.00,VWS V14.01,2013-01-29 09:29:00,
2013-01-29 05:34:00,74.7,67.8,29.99,ENE,68,4.0,53.5,79,0.00,,---,0.00,VWS V14.01,2013-01-29 09:34:00,
2013-01-29 05:39:00,74.5,67.2,29.99,North,0,4.7,53.5,78,0.00,,---,0.00,VWS V14.01,2013-01-29 09:39:00,
2013-01-29 05:44:00,74.7,67.4,29.99,East,90,4.7,53.5,78,0.00,,---,0.00,VWS V14.01,2013-01-29 09:44:00,
2013-01-29 05:49:00,74.7,67.4,30.00,SSE,158,4.7,53.5,78,0.00,,---,0.00,VWS V14.01,2013-01-29 09:49:00,
2013-01-29 05:54:00,74.9,67.6,30.00,NE,45,3.8,53.5,78,0.00,,---,0.00,VWS V14.01,2013-01-29 09:54:00,
2013-01-29 05:59:00,74.9,67.2,30.00,North,0,5.8,53.5,77,0.00,,---,0.00,VWS V14.01,2013-01-29 09:59:00,
2013-01-29 06:04:00,74.9,67.2,30.00,SSE,158,3.4,53.5,77,0.00,,---,0.00,VWS V14.01,2013-01-29 10:04:00,
2013-01-29 06:09:00,74.9,67.6,30.01,SE,135,5.8,53.5,78,0.00,,---,0.00,VWS V14.01,2013-01-29 10:09:00,
2013-01-29 06:14:00,74.9,67.6,30.01,SW,225,3.1,53.5,78,0.00,,---,0.00,VWS V14.01,2013-01-29 10:14:00,
2013-01-29 06:19:00,74.9,67.9,30.01,SE,135,4.7,53.5,79,0.00,,---,0.00,VWS V14.01,2013-01-29 10:19:00,
2013-01-29 06:24:00,74.9,67.9,30.00,SE,135,5.6,53.5,79,0.00,,---,0.00,VWS V14.01,2013-01-29 10:24:00,
2013-01-29 06:29:00,74.9,68.3,30.00,NE,45,4.0,53.5,80,0.00,,---,0.00,VWS V14.01,2013-01-29 10:29:00,
2013-01-29 06:34:00,74.7,67.4,30.01,ENE,68,2.9,53.5,78,0.00,,---,0.00,VWS V14.01,2013-01-29 10:34:00,
2013-01-29 06:39:00,74.7,67.4,30.01,South,180,5.8,53.5,78,0.00,,---,0.00,VWS V14.01,2013-01-29 10:39:00,
2013-01-29 06:44:00,74.9,67.9,30.01,SE,135,6.5,53.5,79,0.00,,---,0.00,VWS V14.01,2013-01-29 10:44:00,
2013-01-29 06:49:00,74.9,67.9,30.01,East,90,6.7,53.5,79,0.00,,---,0.00,VWS V14.01,2013-01-29 10:49:00,
2013-01-29 06:54:00,74.7,67.4,30.01,South,180,5.6,53.5,78,0.00,,---,0.00,VWS V14.01,2013-01-29 10:54:00,
2013-01-29 06:59:00,74.9,67.6,30.02,ESE,112,3.4,53.5,78,0.00,,---,0.00,VWS V14.01,2013-01-29 10:59:00,
2013-01-29 07:04:00,74.9,67.6,30.02,WSW,248,4.7,53.5,78,0.00,,---,0.00,VWS V14.01,2013-01-29 11:04:00,
2013-01-29 07:09:00,75.1,67.8,30.02,East,90,3.4,53.5,78,0.00,,---,0.00,VWS V14.01,2013-01-29 11:09:00,
2013-01-29 07:14:00,75.2,67.5,30.02,SE,135,4.7,53.5,77,0.00,,---,0.00,VWS V14.01,2013-01-29 11:14:00,
2013-01-29 07:19:00,76.1,68.4,30.02,SSE,158,2.5,53.5,77,0.00,,---,0.00,VWS V14.01,2013-01-29 11:19:00,
2013-01-29 07:24:00,76.9,68.4,30.02,WSW,248,4.3,53.5,75,0.00,,---,0.00,VWS V14.01,2013-01-29 11:24:00,
2013-01-29 07:29:00,77.4,68.1,30.02,SE,135,4.5,53.5,73,0.00,,---,0.00,VWS V14.01,2013-01-29 11:29:00,
2013-01-29 07:35:00,77.9,68.2,30.02,East,90,4.7,53.5,72,0.00,,---,0.00,VWS V14.01,2013-01-29 11:35:00,
2013-01-29 07:40:00,78.1,67.5,30.02,NNE,22,4.0,53.5,70,0.00,,---,0.00,VWS V14.01,2013-01-29 11:40:00,
2013-01-29 07:45:00,78.7,68.1,30.02,ENE,68,4.0,53.5,70,0.00,,---,0.00,VWS V14.01,2013-01-29 11:45:00,
2013-01-29 07:50:00,78.8,67.8,30.02,NE,45,3.6,53.5,69,0.00,,---,0.00,VWS V14.01,2013-01-29 11:50:00,
2013-01-29 07:55:00,78.5,68.3,30.02,SE,135,2.9,53.5,71,0.00,,---,0.00,VWS V14.01,2013-01-29 11:55:00,
2013-01-29 08:00:00,77.4,68.1,30.03,SSW,202,3.4,53.5,73,0.00,,---,0.00,VWS V14.01,2013-01-29 12:00:00,
2013-01-29 08:05:00,77.0,68.5,30.03,South,180,4.5,53.5,75,0.00,,---,0.00,VWS V14.01,2013-01-29 12:05:00,
2013-01-29 08:10:00,77.4,68.9,30.03,ESE,112,3.6,53.5,75,0.00,,---,0.00,VWS V14.01,2013-01-29 12:10:00,
2013-01-29 08:15:00,77.6,69.1,30.03,North,0,2.5,53.5,75,0.00,,---,0.00,VWS V14.01,2013-01-29 12:15:00,
2013-01-29 08:20:00,78.3,68.9,30.04,East,90,3.4,53.5,73,0.00,,---,0.00,VWS V14.01,2013-01-29 12:20:00,
2013-01-29 08:25:00,79.0,69.2,30.04,NNW,338,1.6,53.5,72,0.00,,---,0.00,VWS V14.01,2013-01-29 12:25:00,
2013-01-29 08:30:00,79.6,69.4,30.04,SE,135,3.6,53.5,71,0.00,,---,0.00,VWS V14.01,2013-01-29 12:30:00,
2013-01-29 08:35:00,79.7,69.5,30.04,SE,135,2.9,53.5,71,0.00,,---,0.00,VWS V14.01,2013-01-29 12:35:00,
2013-01-29 08:40:00,79.2,69.4,30.04,South,180,4.9,53.5,72,0.00,,---,0.00,VWS V14.01,2013-01-29 12:40:00,
2013-01-29 08:45:00,79.6,69.8,30.05,SE,135,4.7,53.5,72,0.00,,---,0.00,VWS V14.01,2013-01-29 12:45:00,
2013-01-29 08:50:00,79.9,69.7,30.05,North,0,4.7,53.5,71,0.00,,---,0.00,VWS V14.01,2013-01-29 12:50:00,
2013-01-29 08:55:00,79.6,69.0,30.05,East,90,5.4,53.5,70,0.00,,---,0.00,VWS V14.01,2013-01-29 12:55:00,
2013-01-29 09:01:00,79.9,69.7,30.05,SE,135,5.8,53.5,71,0.00,,---,0.00,VWS V14.01,2013-01-29 13:01:00,
2013-01-29 09:06:00,80.1,68.6,30.05,South,180,5.8,53.5,68,0.00,,---,0.00,VWS V14.01,2013-01-29 13:06:00,
2013-01-29 09:11:00,80.3,68.3,30.05,SE,135,3.8,53.5,67,0.00,,---,0.00,VWS V14.01,2013-01-29 13:11:00,
2013-01-29 09:16:00,80.5,68.1,30.05,WNW,292,5.4,53.5,66,0.00,,---,0.00,VWS V14.01,2013-01-29 13:16:00,
2013-01-29 09:21:00,80.8,69.3,30.05,NW,315,3.8,53.5,68,0.00,,---,0.00,VWS V14.01,2013-01-29 13:21:00,
2013-01-29 09:26:00,80.8,69.3,30.05,WSW,248,4.7,53.5,68,0.00,,---,0.00,VWS V14.01,2013-01-29 13:26:00,
2013-01-29 09:31:00,80.6,68.2,30.06,SE,135,5.6,53.5,66,0.00,,---,0.00,VWS V14.01,2013-01-29 13:31:00,
2013-01-29 09:36:00,80.6,68.6,30.06,NNE,22,4.5,53.5,67,0.00,,---,0.00,VWS V14.01,2013-01-29 13:36:00,
2013-01-29 09:41:00,80.8,68.8,30.06,SSE,158,4.0,53.5,67,0.00,,---,0.00,VWS V14.01,2013-01-29 13:41:00,
2013-01-29 09:46:00,81.0,68.6,30.06,ESE,112,2.5,53.5,66,0.00,,---,0.00,VWS V14.01,2013-01-29 13:46:00,
2013-01-29 09:51:00,81.0,68.6,30.06,ESE,112,6.5,53.5,66,0.00,,---,0.00,VWS V14.01,2013-01-29 13:51:00,
2013-01-29 09:56:00,81.0,68.6,30.06,East,90,5.4,53.5,66,0.00,,---,0.00,VWS V14.01,2013-01-29 13:56:00,
2013-01-29 10:01:00,81.0,69.0,30.06,ENE,68,3.6,53.5,67,0.00,,---,0.00,VWS V14.01,2013-01-29 14:01:00,
2013-01-29 10:06:00,81.0,68.6,30.06,NE,45,6.3,53.5,66,0.00,,---,0.00,VWS V14.01,2013-01-29 14:06:00,
2013-01-29 10:11:00,81.0,69.0,30.06,NNE,22,5.1,53.5,67,0.00,,---,0.00,VWS V14.01,2013-01-29 14:11:00,
2013-01-29 10:16:00,81.0,69.0,30.06,NE,45,4.0,53.5,67,0.00,,---,0.00,VWS V14.01,2013-01-29 14:16:00,
2013-01-29 10:21:00,81.4,69.4,30.06,NNE,22,6.5,53.5,67,0.00,,---,0.00,VWS V14.01,2013-01-29 14:21:00,
2013-01-29 10:26:00,81.2,69.2,30.06,ENE,68,4.3,53.5,67,0.00,,---,0.00,VWS V14.01,2013-01-29 14:26:00,
2013-01-29 10:31:00,79.9,68.8,30.06,SSW,202,5.4,53.5,69,0.00,,---,0.00,VWS V14.01,2013-01-29 14:31:00,
2013-01-29 10:36:00,79.0,68.8,30.06,ESE,112,4.7,53.5,71,0.00,,---,0.00,VWS V14.01,2013-01-29 14:36:00,
2013-01-29 10:42:00,79.2,68.6,30.05,East,90,2.7,53.5,70,0.00,,---,0.00,VWS V14.01,2013-01-29 14:42:00,
2013-01-29 10:47:00,80.1,68.6,30.05,NE,45,3.8,53.5,68,0.00,,---,0.00,VWS V14.01,2013-01-29 14:47:00,
2013-01-29 10:52:00,80.6,69.1,30.05,SSE,158,2.5,53.5,68,0.00,,---,0.00,VWS V14.01,2013-01-29 14:52:00,
2013-01-29 10:57:00,81.2,69.6,30.05,North,0,1.8,53.5,68,0.00,,---,0.00,VWS V14.01,2013-01-29 14:57:00,
2013-01-29 11:02:00,81.4,69.4,30.05,ESE,112,6.3,53.5,67,0.00,,---,0.00,VWS V14.01,2013-01-29 15:02:00,
2013-01-29 11:07:00,81.2,68.8,30.05,NW,315,3.8,53.5,66,0.00,,---,0.00,VWS V14.01,2013-01-29 15:07:00,
2013-01-29 11:12:00,81.2,68.3,30.05,ESE,112,4.5,53.5,65,0.00,,---,0.00,VWS V14.01,2013-01-29 15:12:00,
2013-01-29 11:17:00,81.0,68.1,30.05,NNW,338,2.7,53.5,65,0.00,,---,0.00,VWS V14.01,2013-01-29 15:17:00,
2013-01-29 11:22:00,81.4,69.4,30.04,SE,135,2.2,53.5,67,0.00,,---,0.00,VWS V14.01,2013-01-29 15:22:00,
2013-01-29 11:27:00,81.5,69.5,30.04,SE,135,5.1,53.5,67,0.00,,---,0.00,VWS V14.01,2013-01-29 15:27:00,
2013-01-29 11:32:00,81.0,69.0,30.04,SSE,158,5.4,53.5,67,0.00,,---,0.00,VWS V14.01,2013-01-29 15:32:00,
2013-01-29 11:37:00,81.2,69.6,30.04,ENE,68,4.7,53.5,68,0.00,,---,0.00,VWS V14.01,2013-01-29 15:37:00,
2013-01-29 11:42:00,81.7,70.1,30.04,NE,45,3.1,53.5,68,0.00,,---,0.00,VWS V14.01,2013-01-29 15:42:00,
2013-01-29 11:47:00,81.7,69.7,30.03,West,270,3.4,53.5,67,0.00,,---,0.00,VWS V14.01,2013-01-29 15:47:00,
2013-01-29 11:53:00,81.5,69.1,30.04,ENE,68,4.5,53.5,66,0.00,,---,0.00,VWS V14.01,2013-01-29 15:53:00,
2013-01-29 11:58:00,81.0,68.1,30.03,SSE,158,2.5,53.5,65,0.00,,---,0.00,VWS V14.01,2013-01-29 15:58:00,
2013-01-29 12:02:00,81.0,68.6,30.03,NE,45,4.0,53.5,66,0.00,,---,0.00,VWS V14.01,2013-01-29 16:02:00,
2013-01-29 12:08:00,80.6,68.2,30.03,SSW,202,5.4,53.5,66,0.00,,---,0.00,VWS V14.01,2013-01-29 16:08:00,
2013-01-29 12:13:00,80.8,68.4,30.02,SE,135,4.0,53.5,66,0.00,,---,0.00,VWS V14.01,2013-01-29 16:13:00,
2013-01-29 12:18:00,81.0,68.6,30.02,SSE,158,3.4,53.5,66,0.00,,---,0.00,VWS V14.01,2013-01-29 16:18:00,
2013-01-29 12:23:00,81.0,68.6,30.02,ESE,112,4.9,53.5,66,0.00,,---,0.00,VWS V14.01,2013-01-29 16:23:00,
2013-01-29 12:28:00,81.0,68.6,30.02,South,180,4.5,53.5,66,0.00,,---,0.00,VWS V14.01,2013-01-29 16:28:00,
2013-01-29 12:33:00,81.0,68.6,30.02,South,180,3.8,53.5,66,0.00,,---,0.00,VWS V14.01,2013-01-29 16:33:00,
2013-01-29 12:38:00,81.0,68.1,30.02,NE,45,4.7,53.5,65,0.00,,---,0.00,VWS V14.01,2013-01-29 16:38:00,
2013-01-29 12:43:00,81.0,68.6,30.02,NNE,22,4.7,53.5,66,0.00,,---,0.00,VWS V14.01,2013-01-29 16:43:00,
2013-01-29 12:48:00,80.6,68.2,30.02,South,180,3.8,53.5,66,0.00,,---,0.00,VWS V14.01,2013-01-29 16:48:00,
2013-01-29 12:53:00,80.6,68.2,30.01,North,0,3.6,53.5,66,0.00,,---,0.00,VWS V14.01,2013-01-29 16:53:00,
2013-01-29 12:58:00,80.6,68.2,30.01,ENE,68,6.0,53.5,66,0.00,,---,0.00,VWS V14.01,2013-01-29 16:58:00,
2013-01-29 13:03:00,80.5,67.7,30.01,SW,225,5.1,53.5,65,0.00,,---,0.00,VWS V14.01,2013-01-29 17:03:00,
2013-01-29 13:08:00,80.1,67.7,30.01,South,180,4.7,53.5,66,0.00,,---,0.00,VWS V14.01,2013-01-29 17:08:00,
2013-01-29 13:13:00,79.9,67.5,30.00,South,180,5.4,53.5,66,0.00,,---,0.00,VWS V14.01,2013-01-29 17:13:00,
2013-01-29 13:18:00,80.3,68.3,30.00,ENE,68,5.1,53.5,67,0.00,,---,0.00,VWS V14.01,2013-01-29 17:18:00,
2013-01-29 13:24:00,80.5,68.1,30.00,ESE,112,5.4,53.5,66,0.00,,---,0.00,VWS V14.01,2013-01-29 17:24:00,
2013-01-29 13:29:00,80.3,67.9,30.00,NW,315,4.3,53.5,66,0.00,,---,0.00,VWS V14.01,2013-01-29 17:29:00,
2013-01-29 13:34:00,79.9,68.0,30.00,SE,135,3.8,53.5,67,0.00,,---,0.00,VWS V14.01,2013-01-29 17:34:00,
2013-01-29 13:39:00,79.9,68.0,30.00,ESE,112,5.4,53.5,67,0.00,,---,0.00,VWS V14.01,2013-01-29 17:39:00,
2013-01-29 13:44:00,80.1,67.7,29.99,NNE,22,4.0,53.5,66,0.00,,---,0.00,VWS V14.01,2013-01-29 17:44:00,
2013-01-29 13:49:00,80.1,67.7,29.99,SSE,158,5.4,53.5,66,0.00,,---,0.00,VWS V14.01,2013-01-29 17:49:00,
2013-01-29 13:54:00,80.1,67.7,29.99,SSE,158,4.7,53.5,66,0.00,,---,0.00,VWS V14.01,2013-01-29 17:54:00,
2013-01-29 13:59:00,79.9,67.5,29.99,SSE,158,3.6,53.5,66,0.00,,---,0.00,VWS V14.01,2013-01-29 17:59:00,
2013-01-29 14:04:00,79.9,68.0,29.99,East,90,2.7,53.5,67,0.00,,---,0.00,VWS V14.01,2013-01-29 18:04:00,
2013-01-29 14:09:00,79.9,68.0,29.99,SSE,158,4.9,53.5,67,0.00,,---,0.00,VWS V14.01,2013-01-29 18:09:00,
2013-01-29 14:14:00,79.7,67.3,29.98,South,180,3.1,53.5,66,0.00,,---,0.00,VWS V14.01,2013-01-29 18:14:00,
2013-01-29 14:20:00,79.7,67.8,29.98,NE,45,5.4,53.5,67,0.00,,---,0.00,VWS V14.01,2013-01-29 18:20:00,
2013-01-29 14:25:00,79.7,67.8,29.98,ENE,68,3.8,53.5,67,0.00,,---,0.00,VWS V14.01,2013-01-29 18:25:00,
2013-01-29 14:30:00,79.6,68.1,29.98,NE,45,3.6,53.5,68,0.00,,---,0.00,VWS V14.01,2013-01-29 18:30:00,
2013-01-29 14:35:00,79.2,68.2,29.98,ENE,68,3.4,53.5,69,0.00,,---,0.00,VWS V14.01,2013-01-29 18:35:00,
2013-01-29 14:40:00,79.0,67.6,29.98,WSW,248,4.7,53.5,68,0.00,,---,0.00,VWS V14.01,2013-01-29 18:40:00,
2013-01-29 14:45:00,79.2,67.7,29.98,ESE,112,6.3,53.5,68,0.00,,---,0.00,VWS V14.01,2013-01-29 18:45:00,
2013-01-29 14:50:00,79.0,67.1,29.97,SW,225,4.3,53.5,67,0.00,,---,0.00,VWS V14.01,2013-01-29 18:50:00,
2013-01-29 14:55:00,78.8,66.9,29.97,NW,315,4.7,53.5,67,0.00,,---,0.00,VWS V14.01,2013-01-29 18:55:00,
2013-01-29 15:00:00,79.0,67.6,29.97,ESE,112,3.4,53.5,68,0.00,,---,0.00,VWS V14.01,2013-01-29 19:00:00,
2013-01-29 15:05:00,79.0,67.6,29.97,SE,135,4.9,53.5,68,0.00,,---,0.00,VWS V14.01,2013-01-29 19:05:00,
2013-01-29 15:10:00,78.8,68.2,29.97,NNE,22,4.0,53.5,70,0.00,,---,0.00,VWS V14.01,2013-01-29 19:10:00,
2013-01-29 15:15:00,79.0,68.0,29.97,SSE,158,4.3,53.5,69,0.00,,---,0.00,VWS V14.01,2013-01-29 19:15:00,
2013-01-29 15:20:00,78.8,67.8,29.97,NNE,22,2.2,53.5,69,0.00,,---,0.00,VWS V14.01,2013-01-29 19:20:00,
2013-01-29 15:25:00,78.8,67.8,29.97,ESE,112,7.2,53.5,69,0.00,,---,0.00,VWS V14.01,2013-01-29 19:25:00,
2013-01-29 15:30:00,78.7,67.7,29.96,East,90,5.4,53.5,69,0.00,,---,0.00,VWS V14.01,2013-01-29 19:30:00,
2013-01-29 15:35:00,78.7,68.1,29.96,ENE,68,6.0,53.5,70,0.00,,---,0.00,VWS V14.01,2013-01-29 19:35:00,
2013-01-29 15:40:00,78.3,68.1,29.96,NNE,22,5.6,53.5,71,0.00,,---,0.00,VWS V14.01,2013-01-29 19:40:00,
2013-01-29 15:45:00,78.1,67.9,29.96,East,90,4.3,53.5,71,0.00,,---,0.00,VWS V14.01,2013-01-29 19:45:00,
2013-01-29 15:50:00,78.1,68.3,29.96,NW,315,3.4,53.5,72,0.00,,---,0.00,VWS V14.01,2013-01-29 19:50:00,
2013-01-29 15:56:00,78.1,68.3,29.96,ESE,112,3.8,53.5,72,0.00,,---,0.00,VWS V14.01,2013-01-29 19:56:00,
2013-01-29 15:57:00,78.1,68.3,29.96,East,90,4.3,53.5,72,0.00,,---,0.00,VWS V14.01,2013-01-29 19:57:00,
2013-01-29 16:02:00,77.9,67.8,29.96,ESE,112,4.7,53.5,71,0.00,,---,0.00,VWS V14.01,2013-01-29 20:02:00,
2013-01-29 16:07:00,77.6,67.5,29.96,NW,315,4.5,53.5,71,0.00,,---,0.00,VWS V14.01,2013-01-29 20:07:00,
2013-01-29 16:12:00,77.4,67.3,29.96,SW,225,1.8,53.5,71,0.00,,---,0.00,VWS V14.01,2013-01-29 20:12:00,
2013-01-29 16:17:00,77.4,67.3,29.96,West,270,4.9,53.5,71,0.00,,---,0.00,VWS V14.01,2013-01-29 20:17:00,
2013-01-29 16:23:00,77.2,67.1,29.96,North,0,2.5,53.5,71,0.00,,---,0.00,VWS V14.01,2013-01-29 20:23:00,
2013-01-29 16:28:00,77.2,67.1,29.96,ENE,68,4.0,53.5,71,0.00,,---,0.00,VWS V14.01,2013-01-29 20:28:00,
2013-01-29 16:33:00,77.0,67.3,29.97,ESE,112,3.8,53.5,72,0.00,,---,0.00,VWS V14.01,2013-01-29 20:33:00,
2013-01-29 16:38:00,77.0,67.3,29.97,SE,135,4.3,53.5,72,0.00,,---,0.00,VWS V14.01,2013-01-29 20:38:00,
2013-01-29 16:43:00,76.9,66.8,29.97,East,90,4.3,53.5,71,0.00,,---,0.00,VWS V14.01,2013-01-29 20:43:00,
2013-01-29 16:48:00,76.9,66.8,29.97,SSE,158,3.1,53.5,71,0.00,,---,0.00,VWS V14.01,2013-01-29 20:48:00,
2013-01-29 16:53:00,76.9,67.2,29.97,South,180,2.9,53.5,72,0.00,,---,0.00,VWS V14.01,2013-01-29 20:53:00,
2013-01-29 16:58:00,76.9,67.6,29.97,ENE,68,4.0,53.5,73,0.00,,---,0.00,VWS V14.01,2013-01-29 20:58:00,
2013-01-29 17:03:00,76.9,67.6,29.97,SSE,158,5.1,53.5,73,0.00,,---,0.00,VWS V14.01,2013-01-29 21:03:00,
2013-01-29 17:08:00,76.9,67.6,29.98,SE,135,5.4,53.5,73,0.00,,---,0.00,VWS V14.01,2013-01-29 21:08:00,
2013-01-29 17:13:00,76.9,68.0,29.98,East,90,2.5,53.5,74,0.00,,---,0.00,VWS V14.01,2013-01-29 21:13:00,
2013-01-29 17:18:00,77.0,68.1,29.98,SE,135,3.8,53.5,74,0.00,,---,0.00,VWS V14.01,2013-01-29 21:18:00,
2013-01-29 17:23:00,77.0,68.5,29.98,NE,45,4.0,53.5,75,0.00,,---,0.00,VWS V14.01,2013-01-29 21:23:00,
2013-01-29 17:29:00,76.7,68.2,29.98,East,90,2.9,53.5,75,0.00,,---,0.00,VWS V14.01,2013-01-29 21:29:00,
2013-01-29 17:34:00,76.7,68.2,29.98,SE,135,4.0,53.5,75,0.00,,---,0.00,VWS V14.01,2013-01-29 21:34:00,
2013-01-29 17:39:00,76.7,68.2,29.98,NNE,22,3.1,53.5,75,0.00,,---,0.00,VWS V14.01,2013-01-29 21:39:00,
2013-01-29 17:44:00,76.5,68.0,29.98,SSE,158,2.9,53.5,75,0.00,,---,0.00,VWS V14.01,2013-01-29 21:44:00,
2013-01-29 17:49:00,76.3,67.8,29.98,ENE,68,3.1,53.5,75,0.00,,---,0.00,VWS V14.01,2013-01-29 21:49:00,
2013-01-29 17:54:00,76.3,68.6,29.98,SE,135,3.4,53.5,77,0.00,,---,0.00,VWS V14.01,2013-01-29 21:54:00,
2013-01-29 17:59:00,76.3,68.6,29.99,ENE,68,7.2,53.5,77,0.00,,---,0.00,VWS V14.01,2013-01-29 21:59:00,
2013-01-29 18:04:00,76.1,68.0,29.99,SE,135,3.1,53.5,76,0.00,,---,0.00,VWS V14.01,2013-01-29 22:04:00,
2013-01-29 18:09:00,76.0,67.1,29.99,South,180,4.9,53.5,74,0.00,,---,0.00,VWS V14.01,2013-01-29 22:09:00,
2013-01-29 18:14:00,76.0,67.1,29.99,WSW,248,3.4,53.5,74,0.00,,---,0.00,VWS V14.01,2013-01-29 22:14:00,
2013-01-29 18:19:00,76.0,67.9,29.99,ESE,112,6.9,53.5,76,0.00,,---,0.00,VWS V14.01,2013-01-29 22:19:00,
2013-01-29 18:24:00,75.8,69.2,29.99,WSW,248,6.9,53.5,80,0.00,,---,0.00,VWS V14.01,2013-01-29 22:24:00,
2013-01-29 18:29:00,74.7,68.5,29.99,SE,135,4.0,53.5,81,0.01,,---,0.01,VWS V14.01,2013-01-29 22:29:00,
2013-01-29 18:34:00,74.2,68.7,29.99,SE,135,6.3,53.5,83,0.01,,---,0.01,VWS V14.01,2013-01-29 22:34:00,
2013-01-29 18:39:00,74.0,68.9,30.00,SE,135,5.4,53.5,84,0.01,,---,0.01,VWS V14.01,2013-01-29 22:39:00,
2013-01-29 18:44:00,74.0,68.9,30.00,WSW,248,4.5,53.5,84,0.01,,---,0.01,VWS V14.01,2013-01-29 22:44:00,
2013-01-29 18:49:00,73.8,68.3,30.00,SE,135,3.8,53.5,83,0.01,,---,0.01,VWS V14.01,2013-01-29 22:49:00,
2013-01-29 18:55:00,73.8,68.3,30.00,ENE,68,2.5,53.5,83,0.01,,---,0.01,VWS V14.01,2013-01-29 22:55:00,
2013-01-29 19:00:00,74.0,68.5,30.00,ESE,112,2.5,53.5,83,0.01,,---,0.01,VWS V14.01,2013-01-29 23:00:00,
2013-01-29 19:05:00,74.0,68.5,30.00,SSE,158,2.9,53.5,83,0.01,,---,0.01,VWS V14.01,2013-01-29 23:05:00,
2013-01-29 19:10:00,74.2,68.7,30.00,SSE,158,2.5,53.5,83,0.01,,---,0.01,VWS V14.01,2013-01-29 23:10:00,
2013-01-29 19:15:00,74.2,68.7,30.00,SE,135,2.5,53.5,83,0.01,,---,0.01,VWS V14.01,2013-01-29 23:15:00,
2013-01-29 19:20:00,74.2,68.7,30.00,SSW,202,3.6,53.5,83,0.01,,---,0.01,VWS V14.01,2013-01-29 23:20:00,
2013-01-29 19:25:00,74.3,69.2,30.01,WSW,248,2.7,53.5,84,0.01,,---,0.01,VWS V14.01,2013-01-29 23:25:00,
2013-01-29 19:30:00,74.3,69.2,30.01,NNE,22,3.6,53.5,84,0.00,,---,0.01,VWS V14.01,2013-01-29 23:30:00,
2013-01-29 19:35:00,74.2,69.1,30.01,ESE,112,3.4,53.5,84,0.00,,---,0.01,VWS V14.01,2013-01-29 23:35:00,
2013-01-29 19:40:00,74.2,68.7,30.01,SSE,158,3.6,53.5,83,0.00,,---,0.01,VWS V14.01,2013-01-29 23:40:00,
2013-01-29 19:45:00,74.2,68.7,30.02,NNE,22,3.6,53.5,83,0.00,,---,0.01,VWS V14.01,2013-01-29 23:45:00,
2013-01-29 19:50:00,74.3,69.2,30.02,NNE,22,4.5,53.5,84,0.00,,---,0.01,VWS V14.01,2013-01-29 23:50:00,
2013-01-29 19:55:00,74.3,69.2,30.02,ENE,68,3.1,53.5,84,0.00,,---,0.01,VWS V14.01,2013-01-29 23:55:00,
2013-01-29 20:00:00,74.3,68.8,30.02,SSE,158,3.8,53.5,83,0.00,,---,0.01,VWS V14.01,2013-01-30 00:00:00,
2013-01-29 20:05:00,74.3,68.8,30.02,NE,45,3.4,53.5,83,0.00,,---,0.01,VWS V14.01,2013-01-30 00:05:00,
2013-01-29 20:10:00,74.5,68.3,30.02,ENE,68,2.9,53.5,81,0.00,,---,0.01,VWS V14.01,2013-01-30 00:10:00,
2013-01-29 20:15:00,74.5,68.3,30.02,North,0,2.7,53.5,81,0.00,,---,0.01,VWS V14.01,2013-01-30 00:15:00,
2013-01-29 20:21:00,74.5,68.3,30.02,North,0,2.5,53.5,81,0.00,,---,0.01,VWS V14.01,2013-01-30 00:21:00,
2013-01-29 20:26:00,74.5,68.3,30.03,SE,135,4.0,53.5,81,0.00,,---,0.01,VWS V14.01,2013-01-30 00:26:00,
2013-01-29 20:31:00,74.7,68.5,30.03,ESE,112,4.0,53.5,81,0.00,,---,0.01,VWS V14.01,2013-01-30 00:31:00,
2013-01-29 20:36:00,74.9,68.7,30.02,SSE,158,5.1,53.5,81,0.00,,---,0.01,VWS V14.01,2013-01-30 00:36:00,
2013-01-29 20:41:00,74.9,68.7,30.03,NE,45,3.1,53.5,81,0.00,,---,0.01,VWS V14.01,2013-01-30 00:41:00,
2013-01-29 20:46:00,75.1,68.9,30.03,NW,315,4.0,53.5,81,0.00,,---,0.01,VWS V14.01,2013-01-30 00:46:00,
2013-01-29 20:51:00,75.1,68.5,30.02,NNE,22,4.9,53.5,80,0.00,,---,0.01,VWS V14.01,2013-01-30 00:51:00,
2013-01-29 20:56:00,75.1,68.2,30.02,ESE,112,4.5,53.5,79,0.00,,---,0.01,VWS V14.01,2013-01-30 00:56:00,
2013-01-29 21:01:00,75.1,68.2,30.03,South,180,2.7,53.5,79,0.00,,---,0.01,VWS V14.01,2013-01-30 01:01:00,
2013-01-29 21:06:00,75.1,68.5,30.02,ENE,68,2.0,53.5,80,0.00,,---,0.01,VWS V14.01,2013-01-30 01:06:00,
2013-01-29 21:11:00,75.1,68.9,30.02,ESE,112,2.5,53.5,81,0.00,,---,0.01,VWS V14.01,2013-01-30 01:11:00,
2013-01-29 21:16:00,75.1,68.9,30.03,NNE,22,4.7,53.5,81,0.00,,---,0.01,VWS V14.01,2013-01-30 01:16:00,
2013-01-29 21:21:00,74.9,68.3,30.03,SSE,158,6.3,53.5,80,0.00,,---,0.01,VWS V14.01,2013-01-30 01:21:00,
2013-01-29 21:26:00,75.1,68.5,30.02,ESE,112,2.5,53.5,80,0.00,,---,0.01,VWS V14.01,2013-01-30 01:26:00,
2013-01-29 21:31:00,74.9,67.6,30.03,ESE,112,4.7,53.5,78,0.00,,---,0.01,VWS V14.01,2013-01-30 01:31:00,
2013-01-29 21:36:00,74.9,67.6,30.03,East,90,4.7,53.5,78,0.00,,---,0.01,VWS V14.01,2013-01-30 01:36:00,
2013-01-29 21:41:00,75.2,68.2,30.03,NE,45,2.7,53.5,79,0.00,,---,0.01,VWS V14.01,2013-01-30 01:41:00,
2013-01-29 21:46:00,75.2,68.2,30.03,SSE,158,4.7,53.5,79,0.00,,---,0.01,VWS V14.01,2013-01-30 01:46:00,
2013-01-29 21:51:00,75.2,68.2,30.03,SSE,158,4.7,53.5,79,0.00,,---,0.01,VWS V14.01,2013-01-30 01:51:00,
2013-01-29 21:56:00,75.1,68.5,30.03,ESE,112,2.9,53.5,80,0.00,,---,0.01,VWS V14.01,2013-01-30 01:56:00,
2013-01-29 22:01:00,75.1,68.5,30.03,North,0,3.4,53.5,80,0.00,,---,0.01,VWS V14.01,2013-01-30 02:01:00,
2013-01-29 22:06:00,75.1,68.2,30.03,SE,135,4.7,53.5,79,0.00,,---,0.01,VWS V14.01,2013-01-30 02:06:00,
2013-01-29 22:12:00,75.1,68.2,30.03,South,180,4.9,53.5,79,0.00,,---,0.01,VWS V14.01,2013-01-30 02:12:00,
2013-01-29 22:17:00,75.1,68.2,30.03,NW,315,2.7,53.5,79,0.00,,---,0.01,VWS V14.01,2013-01-30 02:17:00,
2013-01-29 22:22:00,75.1,68.2,30.03,SSE,158,2.5,53.5,79,0.00,,---,0.01,VWS V14.01,2013-01-30 02:22:00,
2013-01-29 22:27:00,74.9,68.3,30.03,SSE,158,3.1,53.5,80,0.00,,---,0.01,VWS V14.01,2013-01-30 02:27:00,
2013-01-29 22:32:00,74.9,67.9,30.03,ESE,112,2.2,53.5,79,0.00,,---,0.01,VWS V14.01,2013-01-30 02:32:00,
2013-01-29 22:37:00,74.9,67.9,30.03,SE,135,3.6,53.5,79,0.00,,---,0.01,VWS V14.01,2013-01-30 02:37:00,
2013-01-29 22:42:00,74.9,67.6,30.03,SSE,158,3.4,53.5,78,0.00,,---,0.01,VWS V14.01,2013-01-30 02:42:00,
2013-01-29 22:47:00,74.9,67.2,30.03,SSE,158,3.1,53.5,77,0.00,,---,0.01,VWS V14.01,2013-01-30 02:47:00,
2013-01-29 22:52:00,74.9,67.2,30.03,SSW,202,3.6,53.5,77,0.00,,---,0.01,VWS V14.01,2013-01-30 02:52:00,
2013-01-29 22:57:00,74.9,67.2,30.03,North,0,4.5,53.5,77,0.00,,---,0.01,VWS V14.01,2013-01-30 02:57:00,
2013-01-29 23:02:00,74.9,67.6,30.03,SSE,158,2.5,53.5,78,0.00,,---,0.01,VWS V14.01,2013-01-30 03:02:00,
2013-01-29 23:07:00,74.9,67.6,30.03,SE,135,1.8,53.5,78,0.00,,---,0.01,VWS V14.01,2013-01-30 03:07:00,
2013-01-29 23:12:00,74.9,67.6,30.03,East,90,4.3,53.5,78,0.00,,---,0.01,VWS V14.01,2013-01-30 03:12:00,
2013-01-29 23:17:00,74.9,67.6,30.03,East,90,4.0,53.5,78,0.00,,---,0.01,VWS V14.01,2013-01-30 03:17:00,
2013-01-29 23:22:00,74.9,67.9,30.03,ENE,68,3.4,53.5,79,0.00,,---,0.01,VWS V14.01,2013-01-30 03:22:00,
2013-01-29 23:27:00,74.9,67.6,30.02,NNW,338,3.1,53.5,78,0.00,,---,0.01,VWS V14.01,2013-01-30 03:27:00,
2013-01-29 23:32:00,74.9,67.6,30.03,SSE,158,3.8,53.5,78,0.00,,---,0.01,VWS V14.01,2013-01-30 03:32:00,
2013-01-29 23:38:00,74.9,67.6,30.02,SW,225,2.7,53.5,78,0.00,,---,0.01,VWS V14.01,2013-01-30 03:38:00,
2013-01-29 23:43:00,74.9,67.9,30.02,East,90,1.8,53.5,79,0.00,,---,0.01,VWS V14.01,2013-01-30 03:43:00,
2013-01-29 23:48:00,74.9,68.3,30.02,NNE,22,5.4,53.5,80,0.00,,---,0.01,VWS V14.01,2013-01-30 03:48:00,
2013-01-29 23:53:00,74.9,67.9,30.02,NNW,338,4.0,53.5,79,0.00,,---,0.01,VWS V14.01,2013-01-30 03:53:00,
2013-01-29 23:58:00,74.9,67.9,30.02,ESE,112,2.9,53.5,79,0.00,,---,0.01,VWS V14.01,2013-01-30 03:58:00,